[TLELIST] Archives

 

[list_settings.list_name] Current TLEs

July 27th 2013 PST

HST 1 20580U 90037B 13207.89936182 .00001281 00000-0 78820-4 0 2908 2 20580 028.4712 012.4628 0003410 052.8889 103.3009 15.03793271 75682 ISS (ZARYA) 1 25544U 98067A 13208.47817385 .00005694 00000-0 10739-3 0 2706 2 25544 051.6506 268.6958 0003973 230.2599 214.7401 15.50077472840954 CXO 1 25867U 99040B 13210.24180944 -.00000590 00000-0 00000+0 0 9296 2 25867 075.6754 337.1012 8514124 277.1395 000.7555 00.37799333 10692 ____________________________________________________________________ These 2-Line ...Continue Reading

[list_settings.list_name] Current TLEs

July 26th 2013 PST

HST 1 20580U 90037B 13206.89690853 .00001261 00000-0 77396-4 0 2892 2 20580 028.4712 019.0355 0003349 043.2530 075.3035 15.03790521 75536 ISS (ZARYA) 1 25544U 98067A 13207.38465318 .00017879 00000-0 31979-3 0 2628 2 25544 051.6510 274.1139 0003790 234.4423 224.3962 15.50063672840788 CXO 1 25867U 99040B 13207.59505856 -.00000570 00000-0 00000+0 0 9280 2 25867 075.6700 337.2191 8518684 277.1788 000.4443 00.37801571 10683 ____________________________________________________________________ These 2-Line ...Continue Reading

[list_settings.list_name] Current TLEs

July 25th 2013 PST

HST 1 20580U 90037B 13205.83872610 .00001342 00000-0 83137-4 0 2887 2 20580 028.4712 025.9736 0003380 032.7838 105.8581 15.03787402 75375 ISS (ZARYA) 1 25544U 98067A 13206.41920132 .00006019 00000-0 11325-3 0 2561 2 25544 051.6501 278.8917 0004222 220.2958 247.6173 15.50028927840630 CXO 1 25867U 99040B 13207.59505856 -.00000570 00000-0 00000+0 0 9280 2 25867 075.6700 337.2191 8518684 277.1788 000.4443 00.37801571 10683 ____________________________________________________________________ These 2-Line ...Continue Reading

[list_settings.list_name] Current TLEs

July 24th 2013 PST

HST 1 20580U 90037B 13204.77229883 .00001206 00000-0 73501-4 0 2879 2 20580 028.4712 032.9657 0003368 022.1207 091.8875 15.03786288 75218 ISS (ZARYA) 1 25544U 98067A 13205.52164819 .00008090 00000-0 14944-3 0 2509 2 25544 051.6504 283.3376 0004216 215.7052 280.5020 15.50025554840494 CXO 1 25867U 99040B 13204.94937503 -.00000390 00000-0 00000+0 0 9273 2 25867 075.6560 337.3675 8524656 277.1934 000.3590 00.37800639 10679 ____________________________________________________________________ These 2-Line ...Continue Reading

[list_settings.list_name] Current TLEs

July 23rd 2013 PST

HST 1 20580U 90037B 13202.84935883 .00001269 00000-0 78012-4 0 2869 2 20580 028.4710 045.5744 0003389 003.1889 120.2226 15.03782010 74924 ISS (ZARYA) 1 25544U 98067A 13204.21522850 .00011490 00000-0 20886-3 0 2439 2 25544 051.6508 289.8078 0004348 213.7502 187.7929 15.50017069840298 CXO 1 25867U 99040B 13204.94937503 -.00000390 00000-0 00000+0 0 9273 2 25867 075.6560 337.3675 8524656 277.1934 000.3590 00.37800639 10679 ____________________________________________________________________ These 2-Line ...Continue Reading

[list_settings.list_name] Current TLEs

July 22nd 2013 PST

HST 1 20580U 90037B 13202.84935883 .00001269 00000-0 78012-4 0 2869 2 20580 028.4710 045.5744 0003389 003.1889 120.2226 15.03782010 74924 ISS (ZARYA) 1 25544U 98067A 13203.45243038 .00011839 00000-0 21506-3 0 2383 2 25544 051.6500 293.5863 0004499 209.9510 252.3549 15.50000585840176 CXO 1 25867U 99040B 13204.94937503 -.00000390 00000-0 00000+0 0 9273 2 25867 075.6560 337.3675 8524656 277.1934 000.3590 00.37800639 10679 ____________________________________________________________________ These 2-Line ...Continue Reading

[list_settings.list_name] Current TLEs

July 20th 2013 PST

HST 1 20580U 90037B 13201.05881310 .00001241 00000-0 76009-4 0 2859 2 20580 028.4709 057.3145 0003362 345.0196 145.9649 15.03778690 74650 ISS (ZARYA) 1 25544U 98067A 13201.51951817 .00010382 00000-0 18996-3 0 2234 2 25544 051.6482 303.1600 0004964 202.2560 267.4341 15.49948210839876 CXO 1 25867U 99040B 13202.30518567 -.00000350 00000-0 00000+0 0 9261 2 25867 075.6388 337.5299 8528806 277.1868 000.5507 00.37797349 10660 ____________________________________________________________________ These 2-Line ...Continue Reading

[list_settings.list_name] Current TLEs

July 19th 2013 PST

HST 1 20580U 90037B 13199.79012444 .00001182 00000-0 71807-4 0 2844 2 20580 028.4709 065.6327 0003268 331.8078 117.4757 15.03774398 74454 ISS (ZARYA) 1 25544U 98067A 13200.48597792 .00009571 00000-0 17591-3 0 2167 2 25544 051.6491 308.2794 0004924 198.3148 260.6388 15.49922512839715 CXO 1 25867U 99040B 13202.30518567 -.00000350 00000-0 00000+0 0 9261 2 25867 075.6388 337.5299 8528806 277.1868 000.5507 00.37797349 10660 ____________________________________________________________________ These 2-Line ...Continue Reading

[list_settings.list_name] Current TLEs

July 18th 2013 PST

HST 1 20580U 90037B 13198.07505549 .00001136 00000-0 68543-4 0 2838 2 20580 028.4708 076.8775 0003185 313.0428 193.2808 15.03769212 74204 ISS (ZARYA) 1 25544U 98067A 13199.45198818 .00009599 00000-0 17653-3 0 2098 2 25544 051.6494 313.3991 0005012 194.4354 251.3734 15.49901657839550 CXO 1 25867U 99040B 13197.01567539 -.00000515 00000-0 00000+0 0 9246 2 25867 075.6086 337.8481 8531982 277.1778 000.7724 00.37801373 10644 ____________________________________________________________________ These 2-Line ...Continue Reading

[list_settings.list_name] Current TLEs

July 17th 2013 PST

HST 1 20580U 90037B 13198.07505549 .00001136 00000-0 68543-4 0 2838 2 20580 028.4708 076.8775 0003185 313.0428 193.2808 15.03769212 74204 ISS (ZARYA) 1 25544U 98067A 13198.48580727 .00009881 00000-0 18160-3 0 2036 2 25544 051.6498 318.1842 0005031 190.3093 261.0299 15.49883372839409 CXO 1 25867U 99040B 13197.01567539 -.00000515 00000-0 00000+0 0 9246 2 25867 075.6086 337.8481 8531982 277.1778 000.7724 00.37801373 10644 ____________________________________________________________________ These 2-Line ...Continue Reading
  • This mailing list is a public mailing list - anyone may join or leave, at any time.
  • This mailing list is announce-only.

International Space Station (ISS) / Hubble Space Telescope (HST) / Chandra X-Ray Observatory Orbital Data via EMAIL

Privacy Policy:

Private list